Location: Davayat
(45.9471°N, 3.1105°E)
Time: 13:23:08
(UTC+00:00)

Cosmos 1538 Rocket - Pass Details

Date: 01 December 2020
Orbit: 753 x 791 km, 74.0° (Epoch: 26 January)

Event Time Altitude Azimuth Distance (km) Brightness Sun altitude
Rises 17:51:39 0° 206° (SSW) 3,269 7.8 -18.1°
Reaches altitude 10° 17:54:02 10° 208° (SSW) 2,347 7.1 -18.5°
Maximum altitude 17:59:22 72° 293° (WNW) 833 4.2 -19.4°
Enters shadow 18:04:00 14° 17° (NNE) 2,080 6.0 -20.2°
